Zurück zum Katalog

THOR AGENA D R/B

AktivPO
NORAD 733·ROCKET BODY·🇺🇸 United States

Gestartet Jan 19, 1964 von Vandenberg Space Force Base

Loading…

Nächste Überflüge (nächste 24 Stunden)

TLE

AktuellSource: Space-Track

Epoche: Sep 14, 2026, 21:09 UTC

1 00733U 64002A   26257.88178137  .00000111  00000-0  56797-4 0  9991
2 00733  99.1137 281.4463 0033751  68.4243 292.0531 14.34094538265410

Verfolge THOR AGENA D R/B in Echtzeit mit AllMySat

Download on the App Store